Location: ?????? ??????
(44.3742°N, 135.2221°E)
Time: 07:58:41
(UTC+00:00)

IRIDIUM 103 - Pass Details

Date: 19 May 2025
Orbit: 775 x 780 km, 86.4° (Epoch: 23 June)

Event Time Altitude Azimuth Distance (km) Brightness Sun altitude
Exits shadow 15:58:55 54° 144° (SE) 943 4.5 -24.1°
Maximum altitude 15:59:56 68° 90° (E) 842 4.4 -24.0°
Drops below altitude 10° 16:05:08 10° 8° (N) 2,342 7.9 -23.8°
Sets 16:07:30 0° 6° (N) 3,274 8.9 -23.6°
